Back to catalog

HULIANWANG DIGUI-10

AliveCommunicationsPO
NORAD 62332·PAYLOAD·🇨🇳 China

Launched Dec 16, 2024 from Wenchang Space Launch Site

Loading…

Next Passes (next 24 hours)

TLE

FreshSource: Space-Track

Epoch: Sep 14, 2026, 21:58 UTC

1 62332U 24240K   26257.91578882  .00000027  00000-0  28427-4 0  9994
2 62332  86.5026 313.1873 0001715  86.9455 273.1876 13.24413464 84516

Track HULIANWANG DIGUI-10 in real time with AllMySat

Download on the App Store